Location: Arpaise
(41.0333°N, 14.7333°E)
Time: 00:42:24
(UTC+00:00)

Cosmos 1943 - Pass Details

Date: 05 July 2020
Orbit: 835 x 848 km, 71.0° (Epoch: 11 August)

Event Time Altitude Azimuth Distance (km) Brightness Sun altitude
Exits shadow 22:55:46 29° 98° (E) 1,513 4.4 -26.3°
Drops below altitude 10° 23:00:19 10° 45° (NE) 2,470 6.1 -26.3°
Sets 23:03:02 0° 35° (NE) 3,407 7.2 -26.3°
